Regional Weather Roundup
Issued by NWS Green Bay, WI

Home | Current Version | Previous Version | Text Only | Print | Product List | Glossary On
Versions: 1 2 3 4 5 6 7 8 9 10 11 12 13 14 15 16 17 18 19 20 21 22 23 24 25 26 27 28 29 30 31 32 33 34 35 36 37 38 39 40 41 42 43 44 45 46 47 48 49 50
000
ASUS43 KGRB 021710
RWRGRB

NORTH-CENTRAL AND NORTHEAST WISCONSIN REGIONAL WEATHER ROUNDUP
NATIONAL WEATHER SERVICE GREEN BAY WI
1200 PM CDT TUE SEP 02 2014

WIZ005-009-010>012-018-019-021800-
NORTH CENTRAL WISCONSIN

CITY           SKY/WX    TMP DP  RH WIND       PRES   REMARKS
IRONWOOD       NOT AVBL
MANITOWISH WTR SUNNY     68  54  59 W8        29.87S
ARBOR VITAE    SUNNY     67  54  62 NW7       29.88S
EAGLE RIVER    MOSUNNY   68  52  56 W6        29.86F
LAND O LAKES   MOSUNNY   68  52  55 NW8       29.87S
RHINELANDER    MOSUNNY   69  53  56 W12       29.88F
PHILLIPS       MOSUNNY   68  55  62 SW6       29.87F
ANTIGO         PTSUNNY   67  58  73 W6        29.88F
TOMAHAWK       SUNNY     69  53  55 W10       29.89S
MERRILL        SUNNY     69  57  65 NW8       29.87F
$$

WIZ013-073-021800-
NORTHEAST WISCONSIN

CITY           SKY/WX    TMP DP  RH WIND       PRES   REMARKS
IRON MOUNTAIN  CLOUDY    69  54  58 W9        29.83F
MARINETTE      CLOUDY    64  57  77 W5        29.84F
OCONTO         CLOUDY    62  61  96 CALM      29.86S
$$

WIZ017-030-035>037-045-021800-
CENTRAL WISCONSIN

CITY           SKY/WX    TMP DP  RH WIND       PRES   REMARKS
MEDFORD        SUNNY     69  57  65 NW6       29.88F
WAUSAU         MOSUNNY   70  56  61 W7        29.87S
MOSINEE        MOSUNNY   68  63  83 W6        29.89F
MARSHFIELD     PTSUNNY   71  61  70 W10       29.89S
WISC RAPIDS    SUNNY     72  57  59 W9        29.91S
STEVENS POINT  MOSUNNY   68  58  71 W7        29.89F
WAUPACA        PTSUNNY   74  61  64 W9        29.88F
SHAWANO        CLOUDY    70  61  73 W5        29.88S
CLINTONVILLE   PTSUNNY   70  59  68 W9        29.88R
$$

WIZ038-039-048-051-021800-
FOX VALLEY

CITY           SKY/WX    TMP DP  RH WIND       PRES   REMARKS
NWS GREEN BAY  CLOUDY    68  60  75 CALM      29.87F
APPLETON       MOSUNNY   72  59  64 CALM      29.89F
OSHKOSH        PTSUNNY   72  61  68 W7        29.89S
FOND DU LAC    CLOUDY    72  62  71 W7        29.90S
$$

WIZ022-050-052-021800-
EAST CENTRAL WISCONSIN

CITY           SKY/WX    TMP DP  RH WIND       PRES   REMARKS
STURGEON BAY   CLOUDY    63  57  82 W6        29.88F
MANITOWOC      CLOUDY    71  62  73 W6        29.89R
SHEBOYGAN      CLOUDY    73  59  61 W8        29.89S
$$

LMZ563-521-522-541>543-021800-
LAKESHORE

STATION/POSITION TIME  TEMP    WIND        PRES    VSBY  WAVE
                       AIR SEA DIR/SP/G                  HT/PER
                 (UTC) (F)     (DEG/KT/KT) (MB)    (MI)  (FT/S)
SHEBOYGAN LKSHOR 1700   72 50  240/ 10/ 11 1012.0R
KEWAUNEE LKSHORE 1700   70     320/  6/ 10 1011.0S
NORTHPORT PIER   1700   67     240/  5/ 15 1010.5F
N MID LAKE BUOY  1700   65 65  220/ 10/ 12 1010.4F         1/ 5
S GREEN BAY BUOY 1600   66     VRB  8/ 12  1012.5F
CHAMBERS ISLAND  1700   64     190/  6/ 10 1010.8R
MENOMINEE LKSHOR 1700   65     220/  7/ 10 1011.4S
$$


USA.gov is the U.S. government's official web portal to all federal, state and local government web resources and services.